Showing default

JILIN-01 GAOFEN 3J, 46462

Orbit data source: Space-Track

JILIN-01 GAOFEN 3J, 46462 is a payload satellite owned by Changguang WJ (CN) in SSO that was launched on Tue, 15 Sep 2020 UTC via a CHANG ZHENG 11 launch vehicle from the Yellow Sea Launch Area, China (YSLA). Payload-class satellites include a variety of spacecraft equipped with specific instruments for various scientific and technological missions. These include communications satellites like Starlink; space stations such as the ISS; scientific satellites like the Hubble; Earth observation satellites from companies like Planet Labs, Umbra, and HawkEye 360; GPS; miniature CubeSats for education and research; and military/defense satellites.

Loading next visibility...
Identifier
46462, 2020-065J
Orbit
SSO
Last TLE update
4 hours ago
Origin
Flag of CNCGSTL (CN / PRC)
Manufacturer
Changguang WJ
Mission
Operational Commercial Imaging
Bus & Motor
JL-1, Unknown motor
Mass
42 kg wet, 42 kg dry
Launch date (UTC)
2020-09-15 (5 years ago)
Launch vehicle
CHANG ZHENG 11
Launch site
Yellow Sea Launch Area, China (YSLA)
Object type
Payload
Rocket body
Debris
Shape & HBR
Box + 2 Pan, 1.5 m
Radar Cross Section
2.000 m², Medium (>0.1 m² and < 1m²)

Expand to show TLE details & history

TLE from 4 hours ago
0 JILIN-01 GAOFEN 3J
1 46462U 20065J   25130.50988508  .00025668  00000-0  61244-3 0  9996
2 46462  97.2872 178.4108 0007349 147.1895 212.9810 15.41503567257617
Epoch: 2025-05-10T12:14Z
Definitive object data (Epoch: 2025-05-10T12:14:14.07Z)
Latitude
-0.00002°
Longitude
126.30153°
Altitude
449 km
Speed
7.641 km/s
True Right ascension
11h 53m 38s
True Declination
0° 00' 00"
Sunlit
Object was in full shadow at TLE epoch
Visualization TLE readout
Latitude
-68.55156°
Longitude
145.36963°
Altitude
471.491 km
Speed
7.627 km/s
Apparent Right ascension
12h 57m 23s
Apparent Declination
-54° 36' 41"
Sunlit
Object is in full shadow
Visualization observer readout
Local Sidereal Time
00:50:58
Azimuth
183.654° SSW
Elevation
-75.265°
Doppler factor
1
Orbital elements
Apogee altitude
443.613 km
Perigee altitude
433.594 km
Semi-major axis
6,816.74 km
Eccentricity
0.0007349
Inclination
97.2872°
RAAN
178.4108°
Arg. of periapsis
147.1895°
True anomaly
212.93519°
Mean anomaly
212.981°
Eccentric anomaly
212.95809°
Mean motion
3.85636 °/min
BSTAR
0.00061244
Orbital period
93.35 mins
Loading maneuver chart data...
Loading SW <> Apogee altitude chart data...
Loading historical data...
Loading historical data...
Loading historical data...
Loading historical data...
Loading historical data...
Loading historical data...
Loading historical data...

JILIN-01 GAOFEN 3J Visibility forecast

Observer location: undefined°, undefined°

Span
Click to sort rows by Start time (UTC) header in descending order
Start Az.
Max El. time (UTC)
Max El. Az.
Max El.
End time (UTC)
End Az.
4 mins2025-05-11 02:24:32.066Z111.827° ESE2025-05-11 02:26:32.066Z72.253° E17.453°2025-05-11 02:28:32.066Z30.589° NE
|